Timestamp[UTC];2m Lufttemperatur [degC] (tas);Stations-Luftdruck [Pa] (ps);relative Luftfeuchtigkeit [%] (hurs);spezifische Luftfeuchtigkeit [kg/kg] (huss);Niederschlagsmenge [mm] (pr);Windgeschwindigkeit in 2m [m/s] (sfcWind);Windrichtung [deg];maximale Windgeschwindigkeit [m/s] (wsgsmax);u-Windkomponente [m/s] (uas);v-Windkomponente [m/s] (vas);Sonneneinstrahlung [W/m2];Blitzrate [n];Blitzentfernung [km];Bodenfeuchte in 5cm Tiefe [vol%];Bodenfeuchte in 15cm Tiefe [vol%];Bodenfeuchte in 30cm Tiefe [vol%];Bodenfeuchte in 60cm Tiefe [vol%];Bodentemperatur in 5cm Tiefe [degC];Bodentemperatur in 15cm Tiefe [degC];Bodentemperatur in 30cm Tiefe [degC];Bodentemperatur in 60cm Tiefe [degC];Matrixpotential in 30cm Tiefe [kPa];Bodenfeuchte aus CRNS [vol%] (mrso);Neutronen Anzahl [N/h]
2023-06-01 00:00:00;9,6;100360;91;0,0068;0,0;0,3;279;1,3;-0,34;0,05;0;0;nan;18,4;23,8;22,0;31,1;13,6;14,2;13,6;12,4;-16,8;18,2;1627
2023-06-01 01:00:00;9,5;100358;92;0,0068;0,0;0,5;269;1,4;-0,46;-0,0;0;0;nan;18,3;23,8;22,0;31,1;13,3;14,0;13,6;12,4;-16,8;18,1;1631
2023-06-01 02:00:00;9,1;100350;92;0,0066;0,0;0,3;238;1,0;-0,28;-0,18;0;0;nan;18,3;23,8;22,0;31,1;13,0;13,8;13,5;12,4;-16,9;18,0;1634
2023-06-01 03:00:00;8,2;100350;94;0,0063;0,02;0,3;259;1,2;-0,32;-0,06;10;0;nan;18,3;23,8;22,0;31,1;12,8;13,6;13,5;12,4;-16,9;18,1;1630
2023-06-01 04:00:00;9,6;100352;96;0,0071;0,04;0,6;298;1,8;-0,55;0,29;74;0;nan;18,3;23,8;22,0;31,1;12,6;13,4;13,5;12,5;-16,9;18,0;1632
2023-06-01 05:00:00;11,9;100360;96;0,0083;0,02;1,8;337;3,3;-0,72;1,67;166;0;nan;18,3;23,8;22,0;31,1;12,7;13,3;13,4;12,5;-16,9;18,2;1629
2023-06-01 06:00:00;12,1;100390;94;0,0082;0,0;1,9;355;3,8;-0,16;1,94;186;0;nan;18,3;23,8;22,0;31,1;12,9;13,2;13,3;12,5;-17,0;18,2;1628
2023-06-01 07:00:00;12,0;100410;93;0,0081;0,0;2,1;341;3,9;-0,69;1,95;177;0;nan;18,3;23,8;22,0;31,1;13,1;13,2;13,3;12,5;-17,0;18,3;1624
2023-06-01 08:00:00;12,2;100410;93;0,0082;0,0;2,1;343;3,6;-0,61;1,95;288;0;nan;18,3;23,8;21,9;31,1;13,3;13,3;13,2;12,5;-17,0;18,5;1620
2023-06-01 09:00:00;14,0;100363;89;0,0088;0,0;1,9;354;4,9;-0,21;1,92;568;0;nan;18,3;23,7;21,9;31,1;13,6;13,3;13,2;12,5;-17,0;18,7;1616
2023-06-01 10:00:00;16,3;100310;79;0,0091;0,0;2,2;339;4,6;-0,78;2,04;744;0;nan;18,3;23,7;21,9;31,1;14,1;13,4;13,2;12,5;-17,1;18,8;1612
2023-06-01 11:00:00;17,9;100270;70;0,0089;0,0;2,3;355;4,7;-0,22;2,28;737;0;nan;18,3;23,6;21,8;31,0;14,6;13,6;13,2;12,5;-17,2;19,2;1604
2023-06-01 12:00:00;19,2;100245;63;0,0087;0,0;2,1;10;4,9;0,38;2,06;782;0;nan;18,2;23,5;21,8;31,0;15,1;13,9;13,2;12,5;-17,2;19,0;1608
2023-06-01 13:00:00;20,0;100215;62;0,009;0,0;2,4;1;5,4;0,05;2,34;728;0;nan;18,1;23,4;21,8;31,0;15,5;14,1;13,2;12,5;-17,3;18,9;1611
2023-06-01 14:00:00;20,4;100173;59;0,0089;0,0;2,2;8;5,1;0,3;2,21;626;0;nan;18,1;23,4;21,7;31,0;15,8;14,4;13,2;12,5;-17,4;19,0;1608
2023-06-01 15:00:00;20,4;100140;58;0,0086;0,0;2,3;10;5,2;0,4;2,24;499;0;nan;18,0;23,3;21,7;31,0;15,9;14,6;13,3;12,5;-17,5;18,8;1613
2023-06-01 16:00:00;19,9;100117;59;0,0086;0,0;2,2;9;5,1;0,35;2,19;345;0;nan;18,0;23,2;21,6;31,0;15,9;14,7;13,4;12,5;-17,5;18,9;1610
2023-06-01 17:00:00;18,5;100103;61;0,0081;0,0;1,9;8;3,8;0,27;1,84;159;0;nan;17,9;23,1;21,6;31,0;15,8;14,8;13,4;12,5;-17,6;19,0;1608
2023-06-01 18:00:00;17,8;100100;65;0,0083;0,0;1,4;12;3,1;0,29;1,38;95;0;nan;17,9;23,1;21,6;30,9;15,6;14,9;13,5;12,5;-17,7;18,9;1611
2023-06-01 19:00:00;15,8;100123;72;0,008;0,0;1,4;11;3,5;0,26;1,38;15;0;nan;17,9;23,1;21,6;30,9;15,3;14,8;13,6;12,5;-17,7;18,7;1615
2023-06-01 20:00:00;13,8;100178;79;0,0078;0,0;1,9;9;4,0;0,29;1,88;0;0;nan;17,9;23,1;21,6;30,9;15,0;14,8;13,6;12,5;-17,7;18,4;1624
2023-06-01 21:00:00;11,9;100206;84;0,0073;0,0;1,6;351;3,1;-0,26;1,59;0;0;nan;17,9;23,1;21,6;30,9;14,7;14,7;13,7;12,5;-17,8;18,5;1621
2023-06-01 22:00:00;10,3;100225;87;0,0068;0,0;1,6;336;3,4;-0,64;1,48;0;0;nan;17,9;23,1;21,6;31,0;14,3;14,5;13,7;12,5;-17,8;18,4;1622
2023-06-01 23:00:00;10,2;100238;88;0,0068;0,0;1,7;339;3,1;-0,6;1,56;0;0;nan;17,9;23,1;21,6;31,0;14,0;14,4;13,7;12,5;-17,8;18,5;1621
2023-06-02 00:00:00;10,2;100235;87;0,0068;0,0;1,9;344;3,7;-0,54;1,86;0;0;nan;17,8;23,1;21,6;31,0;13,9;14,2;13,7;12,6;-17,8;18,6;1618
2023-06-02 01:00:00;10,3;100227;86;0,0067;0,0;1,6;345;2,8;-0,42;1,54;0;0;nan;17,8;23,1;21,6;31,0;13,8;14,1;13,7;12,6;-17,9;18,7;1616
2023-06-02 02:00:00;10,5;100220;84;0,0067;0,0;1,5;359;3,3;-0,02;1,5;0;0;nan;17,8;23,1;21,6;31,0;13,7;14,0;13,7;12,6;-17,9;18,5;1620
2023-06-02 03:00:00;10,4;100237;80;0,0063;0,0;1,5;11;3,8;0,28;1,44;1;0;nan;17,8;23,1;21,6;31,0;13,6;13,9;13,6;12,6;-17,9;18,6;1618
2023-06-02 04:00:00;10,1;100264;78;0,006;0,0;1,6;9;4,3;0,23;1,55;15;0;nan;17,8;23,1;21,6;31,0;13,5;13,8;13,6;12,6;-17,9;18,7;1615
2023-06-02 05:00:00;9,8;100290;77;0,0058;0,0;1,8;9;4,4;0,28;1,76;52;0;nan;17,8;23,1;21,6;30,9;13,4;13,8;13,6;12,6;-18,0;18,7;1615
2023-06-02 06:00:00;9,7;100320;77;0,0058;0,0;1,8;13;4,2;0,39;1,71;105;0;nan;17,8;23,0;21,6;30,9;13,3;13,7;13,6;12,6;-18,0;18,8;1614
2023-06-02 07:00:00;10,2;100317;76;0,0059;0,0;1,5;39;3,1;0,89;1,11;250;0;nan;17,8;23,0;21,5;30,9;13,3;13,6;13,5;12,6;-18,0;18,7;1615
2023-06-02 08:00:00;11,8;100288;74;0,0064;0,0;1,6;33;3,8;0,86;1,31;511;0;nan;17,8;23,0;21,5;30,9;13,5;13,6;13,5;12,7;-18,0;18,6;1617
2023-06-02 09:00:00;12,4;100282;74;0,0066;0,0;1,8;22;4,4;0,68;1,69;517;0;nan;17,8;22,9;21,5;30,9;13,7;13,6;13,4;12,6;-18,1;18,4;1622
2023-06-02 10:00:00;13,8;100262;71;0,007;0,0;2,0;22;4,7;0,74;1,85;716;0;nan;17,8;22,9;21,5;30,9;14,0;13,7;13,4;12,7;-18,2;18,3;1626
2023-06-02 11:00:00;14,6;100250;68;0,0071;0,0;1,9;17;4,6;0,56;1,82;738;0;nan;17,7;22,8;21,4;30,9;14,4;13,8;13,4;12,6;-18,2;17,9;1636
2023-06-02 12:00:00;15,6;100233;66;0,0073;0,0;1,9;22;4,2;0,7;1,72;779;0;nan;17,7;22,7;21,4;30,9;14,8;13,9;13,4;12,6;-18,2;17,9;1634
2023-06-02 13:00:00;16,8;100220;63;0,0075;0,0;1,5;13;4,0;0,32;1,4;716;0;nan;17,6;22,7;21,3;30,8;15,1;14,1;13,4;12,6;-18,4;17,9;1635
2023-06-02 14:00:00;17,9;100172;60;0,0077;0,0;1,3;18;3,6;0,4;1,25;625;0;nan;17,6;22,6;21,3;30,8;15,3;14,3;13,4;12,7;-18,4;17,7;1640
2023-06-02 15:00:00;18,8;100118;57;0,0076;0,0;1,4;8;4,1;0,18;1,38;483;0;nan;17,6;22,5;21,2;30,8;15,4;14,5;13,5;12,6;-18,5;18,1;1631
2023-06-02 16:00:00;19,0;100083;59;0,0081;0,0;1,6;11;3,8;0,31;1,54;341;0;nan;17,5;22,5;21,2;30,8;15,5;14,6;13,5;12,7;-18,6;18,0;1632
2023-06-02 17:00:00;18,4;100087;62;0,0081;0,0;2,1;14;5,0;0,49;2,03;198;0;nan;17,5;22,4;21,2;30,8;15,4;14,7;13,6;12,6;-18,6;18,0;1633
2023-06-02 18:00:00;17,6;100130;64;0,008;0,0;1,6;57;4,1;1,35;0,88;96;0;nan;17,5;22,4;21,2;30,8;15,3;14,7;13,6;12,6;-18,6;18,0;1632
2023-06-02 19:00:00;15,4;100168;68;0,0074;0,0;1,2;57;2,7;0,99;0,64;12;0;nan;17,5;22,3;21,1;30,8;15,1;14,7;13,6;12,7;-18,7;18,2;1627
2023-06-02 20:00:00;13,1;100203;73;0,0069;0,0;0,7;65;1,4;0,6;0,28;0;0;nan;17,5;22,3;21,1;30,8;14,7;14,6;13,7;12,7;-18,7;18,3;1625
2023-06-02 21:00:00;12,1;100218;74;0,0065;0,0;0,5;60;1,1;0,29;0,16;0;0;nan;17,4;22,3;21,1;30,8;14,3;14,5;13,7;12,7;-18,8;18,0;1634
2023-06-02 22:00:00;8,6;100235;86;0,006;0,0;0,4;237;1,1;-0,29;-0,18;0;0;nan;17,4;22,3;21,1;30,8;13,9;14,3;13,7;12,7;-18,8;18,1;1631
2023-06-02 23:00:00;7,5;100250;89;0,0057;0,0;0,4;246;0,9;-0,34;-0,15;0;0;nan;17,4;22,3;21,1;30,8;13,5;14,1;13,7;12,7;-18,8;18,0;1633
2023-06-03 00:00:00;6,7;100230;92;0,0056;0,0;0,2;258;0,8;-0,22;-0,05;0;0;nan;17,4;22,3;21,1;30,8;13,1;13,9;13,7;12,7;-18,8;17,8;1638
2023-06-03 01:00:00;6,0;100211;92;0,0054;0,0;0,2;297;0,7;-0,13;0,07;0;0;nan;17,4;22,3;21,1;30,8;12,8;13,7;13,7;12,7;-18,8;17,9;1637
2023-06-03 02:00:00;5,1;100193;94;0,0052;0,0;0,2;306;0,7;-0,09;0,07;0;0;nan;17,3;22,3;21,1;30,8;12,4;13,5;13,6;12,7;-18,8;17,9;1635
2023-06-03 03:00:00;4,8;100213;94;0,005;0,0;0,3;317;0,8;-0,19;0,2;7;0;nan;17,3;22,3;21,1;30,8;12,1;13,3;13,6;12,7;-18,8;17,6;1642
2023-06-03 04:00:00;5,9;100220;98;0,0057;0,04;0,3;257;0,8;-0,25;-0,06;80;0;nan;17,3;22,3;21,1;30,8;11,9;13,1;13,5;12,7;-18,9;17,5;1646
2023-06-03 05:00:00;8,9;100212;98;0,007;0,02;0,9;291;1,4;-0,82;0,31;206;0;nan;17,3;22,3;21,1;30,8;11,8;12,9;13,4;12,7;-18,9;17,4;1648
2023-06-03 06:00:00;13,2;100188;80;0,0075;0,0;0,7;117;1,9;0,48;-0,24;335;0;nan;17,3;22,3;21,1;30,8;12,1;12,8;13,4;12,7;-18,9;17,3;1650
2023-06-03 07:00:00;15,4;100172;67;0,0073;0,0;1,3;97;3,0;1,29;-0,16;459;0;nan;17,3;22,3;21,1;30,8;12,5;12,8;13,3;12,8;-18,9;17,2;1654
2023-06-03 08:00:00;16,8;100175;62;0,0074;0,0;1,6;107;4,0;1,53;-0,48;584;0;nan;17,3;22,2;21,1;30,7;12,9;12,8;13,2;12,7;-19,0;17,1;1657
2023-06-03 09:00:00;18,0;100170;59;0,0076;0,0;1,4;95;3,9;1,41;-0,13;685;0;nan;17,3;22,1;21,0;30,7;13,5;13,0;13,2;12,7;-19,0;17,3;1652
2023-06-03 10:00:00;19,6;100158;56;0,0079;0,0;1,9;104;4,2;1,68;-0,4;743;0;nan;17,2;22,0;21,0;30,7;14,2;13,2;13,1;12,7;-19,0;17,3;1650
2023-06-03 11:00:00;21,0;100143;52;0,0081;0,0;2,1;106;5,3;2,0;-0,57;766;0;nan;17,2;21,9;20,9;30,7;14,8;13,5;13,1;12,7;-19,1;17,5;1646
2023-06-03 12:00:00;21,5;100127;48;0,0077;0,0;2,2;99;4,9;2,15;-0,35;793;0;nan;17,2;21,8;20,9;30,6;15,4;13,9;13,1;12,7;-19,1;17,6;1644
2023-06-03 13:00:00;21,8;100112;47;0,0076;0,0;1,7;98;4,6;1,64;-0,24;746;0;nan;17,1;21,7;20,8;30,6;15,7;14,2;13,2;12,7;-19,2;17,5;1645
2023-06-03 14:00:00;22,2;100070;46;0,0077;0,0;1,6;98;3,9;1,56;-0,21;638;0;nan;17,1;21,6;20,8;30,6;15,8;14,4;13,2;12,7;-19,2;17,6;1644
2023-06-03 15:00:00;22,3;100038;42;0,0071;0,0;1,4;106;4,2;1,36;-0,4;506;0;nan;17,0;21,5;20,7;30,5;15,9;14,6;13,3;12,7;-19,3;17,2;1655
2023-06-03 16:00:00;22,0;100023;44;0,0073;0,0;1,5;56;4,4;1,13;0,76;331;0;nan;17,0;21,5;20,7;30,5;15,9;14,8;13,4;12,7;-19,4;17,1;1657
2023-06-03 17:00:00;21,2;100038;44;0,007;0,0;1,6;47;4,3;1,16;1,09;199;0;nan;16,9;21,4;20,6;30,5;15,8;14,9;13,5;12,6;-19,4;17,0;1659
2023-06-03 18:00:00;19,4;100075;45;0,0064;0,0;1,6;60;4,5;1,34;0,78;88;0;nan;16,9;21,4;20,6;30,5;15,6;14,9;13,6;12,6;-19,5;16,9;1661
2023-06-03 19:00:00;16,5;100152;51;0,0059;0,0;1,1;63;2,6;0,99;0,5;9;0;nan;16,9;21,4;20,6;30,5;15,2;14,8;13,6;12,6;-19,5;16,9;1661
2023-06-03 20:00:00;14,3;100218;56;0,0057;0,0;0,6;55;1,7;0,49;0,34;0;0;nan;16,9;21,3;20,6;30,5;14,9;14,7;13,7;12,7;-19,5;16,8;1665
2023-06-03 21:00:00;11,2;100253;69;0,0057;0,0;0,5;273;1,3;-0,32;0,02;0;0;nan;16,9;21,3;20,6;30,5;14,4;14,6;13,7;12,7;-19,5;17,2;1655
2023-06-03 22:00:00;7,9;100280;82;0,0054;0,0;0,4;243;1,3;-0,3;-0,16;0;0;nan;16,9;21,3;20,6;30,5;13,9;14,4;13,7;12,7;-19,6;17,0;1659
2023-06-03 23:00:00;6,8;100285;85;0,0052;0,0;0,2;270;0,8;-0,21;0,0;0;0;nan;16,8;21,3;20,6;30,5;13,5;14,2;13,7;12,7;-19,6;17,2;1653
2023-06-04 00:00:00;5,9;100255;88;0,0051;0,0;0,3;254;1,0;-0,26;-0,07;0;0;nan;16,8;21,3;20,6;30,5;13,0;14,0;13,7;12,7;-19,6;17,3;1651
2023-06-04 01:00:00;5,4;100245;89;0,005;0,0;0,2;305;0,6;-0,1;0,07;0;0;nan;16,8;21,3;20,6;30,5;12,7;13,7;13,7;12,7;-19,6;17,2;1653
2023-06-04 02:00:00;4,4;100245;90;0,0047;0,0;0,2;310;0,6;-0,15;0,12;0;0;nan;16,8;21,3;20,6;30,5;12,4;13,5;13,6;12,7;-19,6;17,2;1654
2023-06-04 03:00:00;4,2;100251;91;0,0047;0,0;0,3;282;0,8;-0,24;0,05;7;0;nan;16,8;21,3;20,6;30,5;12,0;13,3;13,6;12,8;-19,6;17,3;1650
2023-06-04 04:00:00;5,8;100240;95;0,0054;0,0;0,5;294;1,1;-0,43;0,2;97;0;nan;16,8;21,3;20,6;30,5;11,8;13,0;13,5;12,8;-19,6;17,2;1653
2023-06-04 05:00:00;8,6;100250;90;0,0063;0,0;0,9;289;1,7;-0,86;0,3;202;0;nan;16,8;21,3;20,6;30,5;11,8;12,9;13,4;12,8;-19,6;17,2;1655
2023-06-04 06:00:00;12,9;100257;77;0,0071;0,0;0,6;317;1,3;-0,4;0,43;331;0;nan;16,8;21,3;20,5;30,5;12,0;12,7;13,4;12,8;-19,6;17,1;1656
2023-06-04 07:00:00;15,7;100263;66;0,0074;0,0;0,6;25;1,4;0,21;0,45;464;0;nan;16,8;21,2;20,5;30,5;12,4;12,7;13,3;12,8;-19,6;17,1;1656
2023-06-04 08:00:00;17,7;100270;59;0,0074;0,0;1,1;90;2,8;1,11;0,0;605;0;nan;16,7;21,2;20,5;30,5;12,8;12,8;13,2;12,8;-19,7;17,0;1659
2023-06-04 09:00:00;19,6;100270;53;0,0075;0,0;1,6;98;3,8;1,59;-0,23;708;0;nan;16,7;21,1;20,4;30,5;13,5;13,0;13,2;12,8;-19,7;17,2;1654
2023-06-04 10:00:00;20,7;100264;47;0,0071;0,0;1,7;107;4,1;1,65;-0,51;739;0;nan;16,7;21,0;20,4;30,4;14,2;13,2;13,1;12,8;-19,8;17,2;1653
2023-06-04 11:00:00;21,5;100250;44;0,0071;0,0;1,4;107;3,2;1,15;-0,34;735;0;nan;16,7;20,9;20,3;30,4;14,9;13,5;13,1;12,7;-19,8;17,3;1652
2023-06-04 12:00:00;22,5;100220;40;0,0068;0,0;1,3;90;3,2;1,3;0,0;790;0;nan;16,6;20,8;20,3;30,3;15,4;13,9;13,1;12,7;-19,8;17,3;1652
2023-06-04 13:00:00;22,9;100208;40;0,0069;0,0;1,2;118;4,0;1,08;-0,56;730;0;nan;16,6;20,7;20,2;30,3;15,6;14,2;13,2;12,7;-19,9;17,3;1652
2023-06-04 14:00:00;23,4;100182;38;0,0067;0,0;1,2;92;3,2;1,15;-0,03;656;0;nan;16,6;20,6;20,2;30,3;15,8;14,4;13,2;12,7;-20,0;17,2;1653
2023-06-04 15:00:00;23,6;100138;37;0,0067;0,0;1,0;72;2,6;0,72;0,23;488;0;nan;16,5;20,5;20,1;30,3;15,9;14,6;13,3;12,7;-20,0;17,3;1652
2023-06-04 16:00:00;23,0;100108;43;0,0075;0,0;1,3;19;3,4;0,4;1,2;312;0;nan;16,5;20,5;20,1;30,2;16,0;14,8;13,4;12,7;-20,1;17,3;1651
2023-06-04 17:00:00;22,3;100107;45;0,0075;0,0;1,4;12;3,6;0,3;1,39;192;0;nan;16,5;20,4;20,0;30,2;15,9;14,9;13,5;12,7;-20,2;17,3;1650
2023-06-04 18:00:00;20,8;100134;47;0,0072;0,0;1,0;23;2,9;0,36;0,85;94;0;nan;16,5;20,4;20,0;30,2;15,7;14,9;13,5;12,7;-20,3;17,2;1653
2023-06-04 19:00:00;18,8;100183;49;0,0067;0,0;0,5;34;1,3;0,25;0,38;24;0;nan;16,4;20,4;20,0;30,2;15,4;14,9;13,6;12,7;-20,3;17,0;1661
2023-06-04 20:00:00;14,9;100266;60;0,0063;0,0;0,4;311;1,1;-0,17;0,15;0;0;nan;16,4;20,4;20,0;30,2;15,0;14,8;13,7;12,7;-20,3;16,9;1663
2023-06-04 21:00:00;12,0;100303;72;0,0063;0,0;0,6;252;1,4;-0,47;-0,16;0;0;nan;16,4;20,4;20,0;30,2;14,5;14,7;13,7;12,7;-20,3;16,6;1669
2023-06-04 22:00:00;9,3;100320;82;0,006;0,0;0,3;227;1,4;-0,22;-0,2;0;0;nan;16,4;20,4;20,0;30,2;14,1;14,5;13,8;12,7;-20,4;16,7;1667
2023-06-04 23:00:00;8,2;100318;86;0,0058;0,0;0,3;235;0,9;-0,23;-0,16;0;0;nan;16,4;20,4;20,0;30,2;13,7;14,3;13,8;12,7;-20,4;16,6;1671
2023-06-05 00:00:00;7,5;100320;87;0,0056;0,0;0,3;285;0,9;-0,29;0,08;0;0;nan;16,4;20,4;20,0;30,2;13,4;14,1;13,8;12,7;-20,4;16,6;1671
2023-06-05 01:00:00;6,8;100312;89;0,0055;0,0;0,3;252;0,9;-0,3;-0,1;0;0;nan;16,3;20,4;20,0;30,2;13,0;13,9;13,7;12,8;-20,5;16,6;1672
2023-06-05 02:00:00;6,0;100278;90;0,0053;0,0;0,4;237;1,2;-0,35;-0,23;0;0;nan;16,3;20,3;20,0;30,2;12,7;13,7;13,7;12,8;-20,5;16,5;1673
2023-06-05 03:00:00;5,7;100263;92;0,0053;0,0;0,2;227;1,0;-0,16;-0,15;4;0;nan;16,3;20,3;20,0;30,2;12,5;13,5;13,7;12,8;-20,5;16,3;1679
2023-06-05 04:00:00;6,9;100260;94;0,0058;0,0;0,4;279;1,1;-0,43;0,07;72;0;nan;16,3;20,3;20,0;30,2;12,3;13,3;13,6;12,8;-20,5;16,3;1680
2023-06-05 05:00:00;9,8;100260;92;0,0069;0,0;0,8;288;1,6;-0,79;0,26;183;0;nan;16,3;20,3;19,9;30,2;12,2;13,1;13,5;12,8;-20,6;16,3;1677
2023-06-05 06:00:00;13,4;100248;86;0,0082;0,0;0,8;327;1,8;-0,43;0,67;313;0;nan;16,3;20,3;20,0;30,2;12,4;13,0;13,4;12,8;-20,5;16,4;1676
2023-06-05 07:00:00;16,5;100230;75;0,0088;0,0;0,6;352;1,6;-0,09;0,62;475;0;nan;16,3;20,3;19,9;30,2;12,8;13,0;13,4;12,8;-20,6;16,3;1678
2023-06-05 08:00:00;18,1;100210;70;0,0091;0,0;0,9;10;2,5;0,15;0,85;589;0;nan;16,3;20,2;19,9;30,2;13,3;13,1;13,3;12,8;-20,6;16,2;1682
2023-06-05 09:00:00;19,7;100192;62;0,0088;0,0;0,9;43;2,8;0,6;0,65;697;0;nan;16,3;20,2;19,8;30,2;13,8;13,3;13,3;12,8;-20,6;16,0;1689
2023-06-05 10:00:00;21,2;100170;58;0,009;0,0;1,0;21;2,5;0,34;0,88;719;0;nan;16,3;20,1;19,8;30,2;14,5;13,5;13,3;12,8;-20,7;15,9;1692
2023-06-05 11:00:00;22,4;100145;52;0,0087;0,0;0,9;53;2,6;0,7;0,54;729;0;nan;16,3;20,0;19,7;30,1;15,0;13,8;13,2;12,8;-20,9;15,8;1693
2023-06-05 12:00:00;23,6;100098;46;0,0083;0,0;1,1;74;3,2;0,99;0,28;767;0;nan;16,2;19,9;19,7;30,1;15,5;14,1;13,3;12,8;-21,0;15,6;1700
2023-06-05 13:00:00;24,2;100050;41;0,0077;0,0;0,9;60;2,6;0,74;0,43;708;0;nan;16,2;19,8;19,6;30,0;15,9;14,4;13,3;12,8;-21,1;15,5;1703
2023-06-05 14:00:00;24,6;100015;43;0,0083;0,0;0,7;56;2,4;0,48;0,33;624;0;nan;16,2;19,8;19,6;30,0;16,1;14,6;13,4;12,8;-21,2;15,4;1704
2023-06-05 15:00:00;24,4;99995;44;0,0084;0,0;0,8;16;2,7;0,22;0,78;508;0;nan;16,2;19,7;19,5;30,0;16,3;14,8;13,5;12,7;-21,3;15,6;1700
2023-06-05 16:00:00;23,6;99960;48;0,0087;0,0;1,6;2;3,8;0,06;1,62;328;0;nan;16,1;19,6;19,5;30,0;16,3;15,0;13,5;12,8;-21,5;15,6;1700
2023-06-05 17:00:00;22,8;99943;48;0,0084;0,0;1,8;6;3,9;0,19;1,82;190;0;nan;16,1;19,6;19,4;29,9;16,3;15,1;13,6;12,8;-21,6;15,5;1702
2023-06-05 18:00:00;21,3;99975;52;0,0083;0,0;1,1;6;2,6;0,11;1,11;87;0;nan;16,1;19,6;19,4;29,9;16,1;15,2;13,7;12,8;-21,6;15,6;1700
2023-06-05 19:00:00;18,9;100018;59;0,008;0,0;0,6;359;1,3;-0,01;0,55;15;0;nan;16,1;19,6;19,4;29,9;15,8;15,2;13,8;12,8;-21,7;15,7;1697
2023-06-05 20:00:00;15,6;100080;68;0,0075;0,0;0,5;300;1,0;-0,37;0,21;0;0;nan;16,0;19,6;19,4;29,9;15,4;15,1;13,9;12,8;-21,8;16,0;1688
2023-06-05 21:00:00;13,4;100098;75;0,0072;0,0;0,4;288;1,2;-0,35;0,11;0;0;nan;16,0;19,6;19,4;29,9;14,9;15,0;13,9;12,8;-21,9;16,0;1687
2023-06-05 22:00:00;11,4;100130;82;0,0069;0,0;0,3;252;1,1;-0,24;-0,08;0;0;nan;16,0;19,6;19,4;30,0;14,5;14,8;13,9;12,8;-21,9;16,1;1685
2023-06-05 23:00:00;12,1;100130;76;0,0067;0,0;0,7;280;1,2;-0,64;0,12;0;0;nan;16,0;19,6;19,4;30,0;14,2;14,6;14,0;12,8;-22,0;16,1;1684
2023-06-06 00:00:00;11,6;100130;79;0,0067;0,0;0,8;294;1,5;-0,7;0,31;0;0;nan;16,0;19,6;19,4;30,0;13,8;14,4;14,0;12,8;-22,0;16,1;1685
2023-06-06 01:00:00;9,7;100130;86;0,0064;0,0;0,3;227;1,0;-0,22;-0,2;0;0;nan;16,0;19,5;19,4;30,0;13,6;14,2;13,9;12,8;-22,1;16,2;1682
2023-06-06 02:00:00;8,3;100130;90;0,0062;0,0;0,3;241;1,1;-0,23;-0,12;0;0;nan;16,0;19,5;19,4;30,0;13,3;14,1;13,9;12,9;-22,2;16,2;1682
2023-06-06 03:00:00;8,1;100138;93;0,0062;0,0;0,2;301;0,8;-0,18;0,11;12;0;nan;15,9;19,5;19,3;30,0;13,1;13,9;13,9;12,9;-22,2;16,3;1679
2023-06-06 04:00:00;9,4;100140;97;0,0071;0,0;0,4;270;1,1;-0,39;0,0;83;0;nan;15,9;19,5;19,3;30,0;12,9;13,7;13,8;12,9;-22,2;16,3;1677
2023-06-06 05:00:00;12,4;100123;95;0,0085;0,0;0,9;295;1,6;-0,77;0,36;199;0;nan;15,9;19,5;19,3;30,0;12,9;13,6;13,7;12,9;-22,2;16,3;1680
2023-06-06 06:00:00;14,6;100116;91;0,0095;0,0;1,1;330;2,1;-0,54;0,94;305;0;nan;15,9;19,5;19,3;30,0;13,1;13,5;13,7;12,9;-22,3;16,1;1683
2023-06-06 07:00:00;16,4;100110;86;0,0099;0,0;0,8;1;2,0;0,01;0,78;435;0;nan;16,0;19,5;19,3;30,0;13,5;13,5;13,6;12,9;-22,3;16,1;1685
2023-06-06 08:00:00;18,4;100083;79;0,0104;0,0;1,0;334;2,3;-0,44;0,88;570;0;nan;16,0;19,5;19,3;29,9;13,9;13,6;13,6;12,9;-22,4;16,4;1675
2023-06-06 09:00:00;20,3;100083;71;0,0105;0,0;1,0;17;2,7;0,28;0,89;680;0;nan;16,0;19,4;19,2;29,9;14,5;13,7;13,5;12,9;-22,6;16,4;1675
2023-06-06 10:00:00;21,5;100077;67;0,0108;0,0;1,2;13;3,2;0,26;1,14;711;0;nan;16,0;19,3;19,2;29,9;15,1;14,0;13,5;12,9;-22,7;16,4;1677
2023-06-06 11:00:00;22,8;100048;62;0,0108;0,0;1,4;10;3,3;0,25;1,36;713;0;nan;15,9;19,3;19,1;29,8;15,6;14,3;13,5;12,9;-22,9;16,2;1683
2023-06-06 12:00:00;23,9;100020;55;0,0101;0,0;1,6;16;4,1;0,45;1,51;776;0;nan;15,9;19,2;19,1;29,8;16,1;14,6;13,6;12,9;-23,0;16,2;1681
2023-06-06 13:00:00;24,8;99988;50;0,0098;0,0;1,4;19;3,7;0,47;1,33;763;0;nan;15,9;19,1;19,0;29,7;16,5;14,8;13,6;12,9;-23,3;16,3;1679
2023-06-06 14:00:00;24,1;99982;51;0,0096;0,0;1,9;49;4,4;1,39;1,22;487;0;nan;15,9;19,1;19,0;29,7;16,8;15,1;13,7;12,9;-23,4;16,3;1680
2023-06-06 15:00:00;24,6;99946;48;0,0093;0,0;1,3;32;3,7;0,68;1,08;463;0;nan;15,9;19,0;18,9;29,7;16,8;15,3;13,8;12,9;-23,7;16,2;1682
2023-06-06 16:00:00;23,3;99953;51;0,009;0,0;2,0;68;4,8;1,82;0,73;250;0;nan;15,8;19,0;18,9;29,7;16,8;15,5;13,8;12,9;-23,8;16,1;1685
2023-06-06 17:00:00;21,5;100003;56;0,0089;0,0;1,1;66;2,6;1,01;0,45;124;0;nan;15,8;19,0;18,8;29,6;16,7;15,6;13,9;12,9;-24,0;16,0;1687
2023-06-06 18:00:00;20,4;100033;64;0,0096;0,0;0,3;89;0,8;0,3;0,0;54;0;nan;15,8;19,0;18,8;29,6;16,5;15,6;14,0;12,9;-24,2;15,9;1690
2023-06-06 19:00:00;19,3;100084;63;0,0089;0,0;0,9;150;2,1;0,41;-0,71;14;0;nan;15,8;19,0;18,8;29,6;16,3;15,6;14,1;12,9;-24,3;15,8;1693
2023-06-06 20:00:00;17,0;100137;70;0,0084;0,0;0,4;215;0,8;-0,15;-0,21;0;0;nan;15,8;19,0;18,8;29,7;16,0;15,6;14,2;12,9;-24,4;15,6;1698
2023-06-06 21:00:00;15,4;100160;76;0,0083;0,0;0,2;282;0,6;-0,2;0,04;0;0;nan;15,8;19,0;18,8;29,7;15,6;15,5;14,2;12,9;-24,5;15,6;1699
2023-06-06 22:00:00;14,7;100160;78;0,0081;0,0;0,3;249;0,7;-0,23;-0,09;0;0;nan;15,8;18,9;18,8;29,7;15,4;15,3;14,3;12,9;-24,6;15,5;1703
2023-06-06 23:00:00;14,0;100153;82;0,0081;0,0;0,4;271;1,0;-0,35;0,01;0;0;nan;15,7;18,9;18,8;29,7;15,2;15,2;14,3;13,0;-24,6;15,4;1706
2023-06-07 00:00:00;12,6;100154;85;0,0077;0,0;0,2;303;0,5;-0,09;0,06;0;0;nan;15,7;18,9;18,8;29,7;14,9;15,1;14,3;13,0;-24,8;15,3;1708
2023-06-07 01:00:00;11,5;100152;87;0,0074;0,0;0,3;273;0,9;-0,32;0,02;0;0;nan;15,7;18,9;18,8;29,7;14,6;14,9;14,3;13,0;-24,9;15,2;1711
2023-06-07 02:00:00;10,9;100117;90;0,0073;0,0;0,4;277;1,1;-0,4;0,05;0;0;nan;15,7;18,9;18,8;29,7;14,3;14,8;14,2;13,0;-25,0;15,3;1709
2023-06-07 03:00:00;11,8;100110;89;0,0077;0,0;0,5;279;1,2;-0,51;0,08;3;0;nan;15,7;18,9;18,8;29,7;14,2;14,6;14,2;13,0;-25,0;15,3;1709
2023-06-07 04:00:00;12,0;100110;88;0,0077;0,0;0,6;279;1,2;-0,65;0,1;9;0;nan;15,7;18,9;18,8;29,7;14,2;14,5;14,2;13,1;-25,2;15,4;1705
2023-06-07 05:00:00;13,3;100130;90;0,0085;0,0;0,3;282;1,0;-0,33;0,07;65;0;nan;15,7;18,9;18,8;29,7;14,2;14,4;14,2;13,1;-25,3;15,6;1700
2023-06-07 06:00:00;14,9;100133;87;0,0092;0,0;1,0;283;1,9;-0,94;0,22;90;0;nan;15,7;18,9;18,8;29,7;14,3;14,4;14,1;13,1;-25,4;15,8;1694
2023-06-07 07:00:00;16,3;100157;85;0,0099;0,0;0,9;327;1,8;-0,49;0,76;153;0;nan;15,7;18,9;18,8;29,7;14,4;14,3;14,1;13,1;-25,4;15,8;1692
2023-06-07 08:00:00;16,8;100165;86;0,0103;0,12;0,9;340;2,0;-0,32;0,85;163;0;nan;15,7;18,9;18,8;29,7;14,6;14,4;14,0;13,1;-25,5;15,6;1699
2023-06-07 09:00:00;17,0;100160;85;0,0103;0,0;1,5;1;3,1;0,02;1,5;266;0;nan;15,7;18,9;18,8;29,7;14,7;14,4;14,0;13,1;-25,7;15,5;1701
2023-06-07 10:00:00;18,7;100110;80;0,0107;0,0;1,8;345;4,0;-0,45;1,67;396;0;nan;15,7;18,9;18,7;29,7;15,0;14,5;14,0;13,1;-25,8;15,5;1703
2023-06-07 11:00:00;18,7;100098;77;0,0103;0,0;2,0;14;4,3;0,49;1,93;353;0;nan;15,7;18,8;18,7;29,6;15,3;14,6;14,0;13,1;-26,0;15,7;1697
2023-06-07 12:00:00;19,0;100070;80;0,011;0,0;2,3;7;4,5;0,27;2,26;591;0;nan;15,7;18,8;18,7;29,6;15,6;14,7;14,0;13,1;-26,2;15,6;1701
2023-06-07 13:00:00;19,2;100055;79;0,011;0,0;2,4;7;5,1;0,28;2,39;601;0;nan;15,7;18,8;18,6;29,6;15,9;14,9;14,0;13,1;-26,4;15,6;1701
2023-06-07 14:00:00;19,5;100013;80;0,0113;0,0;1,8;26;4,2;0,8;1,62;368;0;nan;15,7;18,8;18,6;29,6;16,2;15,1;14,0;13,1;-26,6;15,6;1699
2023-06-07 15:00:00;20,2;99972;78;0,0115;0,0;1,8;22;4,5;0,68;1,68;401;0;nan;15,7;18,7;18,6;29,5;16,3;15,2;14,1;13,1;-26,8;15,5;1702
2023-06-07 16:00:00;20,7;99940;76;0,0115;0,0;1,7;12;3,8;0,35;1,63;316;0;nan;15,7;18,7;18,5;29,5;16,4;15,4;14,1;13,1;-27,2;15,5;1703
2023-06-07 17:00:00;19,8;99962;76;0,0109;0,0;1,1;43;2,8;0,7;0,74;121;0;nan;15,7;18,7;18,5;29,5;16,5;15,5;14,2;13,1;-27,3;15,6;1698
2023-06-07 18:00:00;19,0;99964;79;0,0108;0,0;0,8;5;1,8;0,07;0,79;65;0;nan;15,7;18,7;18,5;29,5;16,3;15,5;14,2;13,1;-27,5;15,6;1698
2023-06-07 19:00:00;17,0;99970;83;0,0101;0,0;0,2;313;0,5;-0,06;0,06;4;0;nan;15,7;18,7;18,5;29,5;16,1;15,5;14,3;13,1;-27,6;15,8;1694
2023-06-07 20:00:00;15,2;99987;88;0,0095;0,0;0,6;251;1,1;-0,48;-0,17;0;0;nan;15,7;18,7;18,5;29,5;15,7;15,5;14,3;13,1;-27,8;15,9;1690
2023-06-07 21:00:00;14,1;100000;92;0,0093;0,0;0,3;237;1,0;-0,27;-0,18;0;0;nan;15,7;18,7;18,5;29,5;15,4;15,4;14,3;13,1;-28,0;16,0;1688
2023-06-07 22:00:00;13,3;99982;93;0,0089;0,0;0,2;203;0,8;-0,08;-0,18;0;0;nan;15,7;18,7;18,5;29,5;15,2;15,2;14,4;13,2;-28,1;16,1;1686
2023-06-07 23:00:00;12,7;99956;94;0,0086;0,0;0,3;209;0,8;-0,13;-0,23;0;0;nan;15,6;18,7;18,5;29,5;15,0;15,1;14,4;13,2;-28,1;16,1;1685
2023-06-08 00:00:00;12,0;99923;95;0,0084;0,0;0,3;240;0,8;-0,2;-0,12;0;0;nan;15,6;18,7;18,5;29,5;14,8;15,0;14,4;13,2;-28,2;16,3;1680
2023-06-08 01:00:00;11,2;99890;96;0,008;0,0;0,4;253;1,2;-0,37;-0,12;0;0;nan;15,6;18,7;18,5;29,5;14,5;14,9;14,4;13,2;-28,4;16,3;1680
2023-06-08 02:00:00;10,9;99870;96;0,0078;0,0;0,3;246;0,8;-0,23;-0,1;0;0;nan;15,6;18,7;18,5;29,5;14,3;14,7;14,3;13,2;-28,6;16,1;1683
2023-06-08 03:00:00;10,7;99861;96;0,0077;0,06;0,4;219;1,2;-0,26;-0,32;9;0;nan;15,6;18,7;18,4;29,5;14,0;14,6;14,3;13,2;-28,6;16,4;1676
2023-06-08 04:00:00;11,8;99848;100;0,0086;0,02;0,4;239;1,1;-0,34;-0,2;72;0;nan;15,6;18,7;18,4;29,5;14,0;14,4;14,3;13,2;-28,7;16,2;1682
2023-06-08 05:00:00;14,3;99822;99;0,0102;0,02;0,9;291;1,7;-0,8;0,3;178;0;nan;15,6;18,7;18,5;29,6;14,0;14,3;14,2;13,2;-28,9;16,0;1686